Wind_Speed
12 12 12 10 10 10 11 11 12 12 13 15 16 17 18 19 20 21 22 24 26 28 30 33 34 36 35 36 36 37 38 39 39 40 40 40 40 40 40 40 40 40 41 41
12 13 12 10 10 11 12 12 13 14 15 17 18 19 19 20 21 22 24 26 28 30 32 34 35 35 35 36 37 38 39 40 40 41 41 41 41 41 41 41 41 41 41 40
12 12 11 10 10 10 11 12 14 15 16 18 19 20 20 21 22 23 25 27 29 31 33 35 35 35 36 37 38 39 40 41 41 41 42 42 42 42 42 42 42 41 40 39
10 10 10 8 9 10 11 13 14 16 17 19 19 20 20 21 23 25 27 29 30 32 34 35 35 35 36 38 39 40 41 42 42 42 43 43 43 42 42 42 42 41 39 38
10 10 8 8 9 10 12 13 15 17 18 19 19 20 21 22 24 26 28 30 32 33 34 35 35 36 37 39 41 41 42 43 44 44 43 43 43 43 42 42 42 41 39 39
10 9 8 8 9 11 12 14 16 17 18 19 19 20 22 24 25 28 30 31 32 33 34 35 36 37 39 41 42 43 43 44 45 44 44 44 44 43 42 42 41 41 39 39
12 11 9 10 12 13 15 16 17 18 18 19 20 22 23 25 27 29 30 32 33 34 35 35 36 38 40 42 43 44 45 45 45 45 44 44 44 43 42 42 41 40 39 39
13 13 13 13 14 15 17 18 19 20 20 21 23 24 25 27 28 29 31 32 34 35 36 36 37 39 41 42 44 45 46 46 46 45 45 44 43 42 42 41 40 39 39 38
15 15 16 16 16 17 18 20 21 22 23 24 25 26 27 28 30 31 32 34 35 36 37 37 38 40 42 43 45 46 46 46 46 46 45 44 43 42 41 40 39 39 38 37
19 18 19 19 20 20 21 22 23 24 25 26 26 27 29 30 31 32 33 35 36 36 37 39 40 42 44 45 46 46 47 47 46 46 45 44 43 41 40 39 39 39 37 35
23 22 22 21 22 22 23 24 25 26 26 27 28 29 30 31 32 33 34 36 36 37 38 40 42 44 45 46 46 47 47 47 46 45 44 43 42 40 39 39 38 37 35 33
25 24 25 23 23 24 24 25 26 27 27 28 29 30 31 32 33 34 35 36 37 39 40 42 43 44 46 47 47 47 48 47 46 45 43 42 40 39 39 38 37 35 33 32
27 26 26 25 25 25 26 26 27 28 29 29 31 32 32 33 34 35 36 37 39 40 42 44 44 45 47 48 48 48 47 46 44 44 43 41 39 37 37 36 35 33 32 30
29 28 28 27 28 28 28 28 29 30 30 31 32 33 34 35 35 36 38 39 40 42 44 45 46 47 48 48 48 47 47 45 43 42 41 40 38 36 35 34 33 32 31 29
30 30 30 30 30 30 30 31 31 31 32 33 34 35 36 36 37 38 39 41 43 45 46 47 47 48 48 48 48 46 45 43 42 41 39 38 36 35 34 33 32 31 29 27
32 33 33 32 32 32 33 33 33 33 34 35 36 37 38 38 39 39 41 44 46 47 48 48 49 49 49 48 47 45 44 42 41 40 38 36 35 33 32 31 30 30 27 25
34 34 34 34 35 35 35 35 36 37 37 38 38 39 39 41 42 43 45 47 47 48 49 50 50 50 49 48 46 44 42 40 39 38 36 34 33 32 31 29 29 28 26 24
36 36 36 36 36 37 37 37 38 40 40 40 40 42 43 44 44 46 48 49 49 50 50 51 51 50 49 47 44 42 40 38 37 35 34 33 31 30 29 28 27 26 24 23
37 37 37 38 38 39 39 41 41 42 43 44 45 45 46 46 47 49 49 50 51 52 52 52 51 50 47 45 43 40 38 36 35 33 32 31 30 28 27 26 25 23 22 21
39 39 39 40 41 41 42 43 44 45 46 47 47 47 48 49 51 52 52 52 53 54 53 52 50 47 45 43 40 38 36 35 33 31 30 29 28 26 25 24 23 22 20 20
41 41 42 43 44 45 46 47 47 48 49 50 51 51 52 53 53 54 54 53 53 53 51 49 47 45 43 40 38 36 34 33 31 29 28 27 25 24 23 22 21 20 19 18
44 44 45 46 47 48 49 50 51 51 52 53 54 55 55 55 54 54 53 53 52 51 49 48 46 43 40 38 36 34 32 31 29 27 26 24 23 22 21 21 20 19 18 17
48 49 50 50 51 52 53 54 55 55 55 56 56 56 56 55 54 53 52 51 50 49 48 46 43 40 38 36 34 32 30 28 27 25 23 22 20 19 19 19 18 17 16 15
52 53 54 55 55 55 56 57 57 57 57 57 57 57 56 55 54 53 52 50 48 47 45 43 41 38 36 33 31 29 28 26 25 23 21 20 18 17 17 16 15 15 14 13
56 57 57 57 58 58 58 59 59 59 58 58 57 57 56 55 54 52 50 48 46 45 43 40 38 35 33 30 28 26 25 24 22 21 20 18 16 15 14 14 13 12 12 12
59 60 60 60 61 61 61 60 60 60 59 58 56 55 54 53 51 49 47 45 43 41 39 37 34 32 29 27 25 24 23 22 20 19 17 16 14 13 12 11 10 10 10 10
61 61 61 61 61 62 61 61 60 59 58 57 55 53 51 49 47 45 43 41 39 37 35 32 30 28 26 25 24 23 21 20 18 17 16 14 13 11 10 9 8 7 7 8
Wind_Direction
272 273 278 282 282 286 292 301 308 315 318 320 322 324 327 329 330 331 331 332 333 334 335 335 335 334 334 334 334 333 332 331 330 328 326 324 322 320 318 316 314 313 310 307
273 278 283 283 284 288 293 299 303 308 313 318 322 325 327 328 329 330 332 333 334 335 335 335 335 335 335 335 335 334 333 332 330 328 326 325 323 321 319 317 316 314 312 309
275 281 288 288 288 291 296 299 301 304 311 316 320 323 325 327 328 330 332 333 334 335 335 335 335 335 335 335 335 334 333 333 331 329 327 326 324 321 320 318 317 316 314 311
277 285 290 291 289 295 300 302 303 306 310 315 320 322 324 326 328 330 331 332 333 333 333 334 334 335 335 335 335 334 334 333 331 330 328 327 325 323 321 320 319 317 314 311
279 284 285 290 295 300 304 304 305 308 312 316 320 322 324 326 328 329 331 331 332 332 332 333 334 335 335 335 335 335 334 334 332 331 329 327 326 324 322 321 320 318 316 313
277 281 284 296 301 306 305 305 307 309 311 315 318 321 323 325 327 328 329 330 331 331 331 333 334 334 334 334 335 335 334 334 332 331 330 329 327 325 323 323 321 320 318 316
276 283 292 298 305 305 308 309 308 309 312 315 317 320 322 324 325 326 327 329 329 330 330 331 332 333 333 334 334 334 333 333 332 330 330 330 329 327 325 324 323 322 320 319
276 284 293 298 304 305 306 306 308 310 313 314 316 318 319 321 322 323 325 327 328 329 330 330 331 332 332 333 333 333 333 332 331 330 330 331 330 328 327 326 326 325 323 322
279 286 292 298 301 302 303 306 308 310 311 312 314 315 317 319 320 321 323 326 327 328 330 330 331 331 331 332 332 333 333 333 332 332 332 331 331 330 329 328 328 328 326 325
282 287 292 295 298 300 302 303 305 306 307 309 310 312 313 316 318 320 322 324 326 327 328 329 329 330 331 331 331 332 333 333 333 332 332 332 332 331 330 330 330 330 329 329
280 284 286 288 292 294 297 299 300 302 303 305 307 309 311 314 317 319 321 323 325 326 328 329 330 330 330 331 331 332 332 333 333 333 333 332 332 332 332 332 333 333 332 333
277 280 283 288 289 291 293 294 296 298 301 303 305 307 310 313 315 318 320 322 323 325 326 327 328 329 330 330 331 331 332 332 332 333 333 333 333 332 333 335 336 336 336 336
276 279 282 286 287 288 290 293 294 297 299 300 303 306 309 311 315 317 319 320 321 323 324 325 327 328 329 329 330 330 331 331 331 332 333 333 333 333 334 336 338 338 338 339
275 278 282 284 285 286 287 290 291 293 296 298 301 304 307 310 313 314 316 318 319 320 322 323 325 326 328 328 329 329 331 331 331 332 333 333 333 333 335 338 339 339 339 341
273 276 279 281 283 284 285 287 288 290 294 297 299 302 303 306 309 312 314 316 317 319 320 321 322 324 326 327 328 329 330 331 331 332 332 333 333 334 335 338 340 341 342 343
271 273 276 278 280 281 283 285 287 289 291 293 296 299 300 303 307 309 311 313 316 317 317 319 321 323 324 325 326 327 328 329 330 331 331 332 333 334 336 337 339 342 343 344
272 274 276 278 279 281 282 284 286 289 290 291 293 295 298 300 303 305 308 310 313 314 316 317 318 320 322 323 324 325 326 327 328 330 330 331 332 333 336 337 339 341 343 344
274 276 277 279 280 281 282 284 285 287 288 288 290 293 295 298 300 302 305 307 310 311 313 314 315 317 319 320 321 322 323 325 326 328 329 330 331 333 335 337 339 341 343 346
277 279 280 281 281 281 281 282 283 285 287 289 290 291 293 295 297 300 302 304 307 309 310 311 313 315 316 317 318 319 320 322 324 326 327 329 330 332 334 336 338 341 344 347
279 280 281 281 281 281 282 283 284 287 288 288 288 290 293 296 298 299 301 303 305 306 307 309 310 312 313 314 315 316 318 319 321 322 324 327 329 331 333 336 337 339 342 345
280 280 280 280 281 282 283 284 285 285 286 287 289 291 293 296 298 299 299 301 303 304 305 306 308 309 309 310 311 312 314 316 317 318 321 324 327 329 332 335 336 338 340 342
279 279 280 280 281 282 283 284 285 285 286 287 289 290 293 295 296 297 298 300 301 302 303 304 304 305 305 305 306 308 310 312 313 315 318 320 323 327 331 335 337 337 340 342
279 279 280 280 281 282 283 284 285 286 287 288 290 291 293 294 295 296 297 298 299 300 301 302 302 302 302 302 303 305 306 308 309 311 314 316 319 324 329 334 338 340 342 345
280 280 281 282 283 283 284 285 285 286 288 289 290 291 292 293 293 294 295 296 297 298 298 299 299 298 298 298 298 300 301 303 305 306 309 313 316 320 326 332 338 343 346 349
281 282 283 283 284 284 285 285 286 287 288 289 290 290 291 292 292 292 293 293 294 295 295 295 294 294 294 293 293 296 297 298 299 301 304 308 311 315 322 330 337 343 348 353
283 284 284 285 285 286 286 286 287 287 288 288 288 289 289 290 290 290 290 290 290 291 291 291 290 290 289 288 288 291 293 293 294 296 298 301 304 308 315 324 333 341 348 355
285 286 286 287 287 288 288 288 289 289 289 289 289 289 289 289 288 287 287 287 287 286 286 286 285 285 283 282 282 285 287 287 288 290 292 294 296 300 306 314 325 336 345 356
Height
5845 5845 5844 5844 5844 5842 5841 5840 5839 5838 5836 5834 5831 5829 5826 5823 5820 5817 5814 5811 5807 5803 5798 5792 5787 5781 5776 5770 5764 5758 5752 5745 5739 5732 5725 5719 5713 5706 5700 5694 5688 5682 5676 5671
5842 5842 5841 5841 5840 5839 5838 5837 5836 5834 5832 5830 5827 5825 5822 5819 5816 5813 5810 5806 5802 5797 5792 5787 5782 5776 5770 5764 5758 5752 5745 5738 5731 5724 5717 5711 5704 5697 5691 5684 5678 5671 5665 5659
5840 5839 5838 5838 5837 5836 5835 5834 5832 5830 5829 5826 5823 5821 5818 5815 5812 5809 5805 5801 5797 5792 5787 5782 5776 5770 5765 5758 5752 5745 5738 5731 5724 5717 5709 5702 5695 5688 5681 5674 5667 5660 5654 5648
5837 5837 5836 5837 5834 5833 5832 5830 5828 5826 5824 5822 5820 5817 5814 5811 5808 5804 5801 5796 5792 5787 5782 5776 5771 5765 5759 5752 5746 5739 5731 5724 5716 5709 5701 5693 5686 5679 5671 5664 5657 5650 5643 5637
5834 5833 5833 5833 5831 5830 5828 5827 5824 5822 5820 5818 5815 5813 5810 5807 5803 5800 5796 5791 5787 5782 5777 5771 5765 5759 5753 5746 5739 5732 5724 5717 5709 5701 5693 5685 5677 5670 5662 5654 5647 5640 5633 5626
5831 5830 5830 5831 5828 5826 5826 5823 5821 5818 5816 5813 5811 5808 5806 5802 5798 5795 5790 5786 5781 5776 5771 5765 5759 5753 5747 5740 5733 5725 5717 5709 5701 5693 5685 5677 5669 5661 5653 5645 5637 5630 5623 5616
5828 5827 5826 5826 5824 5823 5822 5820 5816 5813 5811 5809 5806 5804 5801 5797 5793 5789 5785 5781 5776 5771 5765 5759 5753 5747 5740 5733 5726 5718 5710 5702 5693 5685 5677 5669 5661 5652 5644 5636 5628 5621 5614 5606
5823 5823 5824 5821 5820 5818 5816 5814 5811 5808 5806 5804 5801 5798 5795 5792 5788 5784 5780 5775 5771 5765 5760 5753 5747 5741 5734 5727 5719 5711 5703 5695 5686 5678 5669 5661 5653 5644 5636 5628 5620 5612 5604 5596
5819 5820 5818 5816 5814 5813 5811 5808 5806 5803 5801 5798 5796 5793 5789 5786 5782 5779 5774 5770 5764 5759 5753 5747 5741 5735 5728 5720 5712 5704 5696 5687 5679 5670 5661 5653 5645 5637 5628 5620 5612 5604 5596 5588
5812 5812 5811 5810 5809 5807 5805 5803 5800 5798 5796 5793 5790 5787 5784 5780 5776 5772 5768 5763 5758 5752 5747 5741 5735 5728 5721 5713 5705 5697 5689 5680 5672 5663 5654 5646 5638 5629 5621 5613 5605 5597 5589 5581
5806 5806 5805 5804 5803 5801 5799 5797 5795 5792 5790 5787 5784 5781 5778 5774 5770 5766 5761 5756 5751 5746 5740 5734 5728 5721 5714 5706 5698 5690 5682 5673 5665 5656 5648 5639 5631 5623 5615 5607 5599 5591 5583 5575
5799 5799 5798 5798 5796 5795 5793 5791 5788 5786 5783 5780 5777 5774 5770 5767 5763 5758 5754 5749 5744 5739 5733 5727 5721 5714 5706 5699 5691 5683 5675 5666 5658 5650 5642 5634 5625 5617 5609 5602 5594 5586 5578 5571
5792 5792 5791 5790 5789 5787 5786 5784 5781 5779 5776 5773 5770 5767 5763 5759 5755 5751 5747 5742 5737 5731 5726 5720 5713 5706 5699 5691 5684 5676 5668 5660 5651 5643 5636 5628 5620 5613 5605 5597 5589 5582 5575 5568
5784 5784 5783 5782 5781 5779 5778 5776 5774 5771 5768 5765 5762 5759 5755 5751 5747 5743 5738 5734 5729 5723 5718 5712 5705 5698 5691 5684 5676 5668 5661 5653 5645 5637 5630 5622 5615 5608 5601 5593 5586 5578 5571 5564
5777 5776 5775 5774 5773 5771 5769 5767 5765 5763 5760 5757 5754 5750 5746 5742 5738 5734 5730 5725 5720 5715 5709 5703 5697 5690 5683 5676 5669 5661 5654 5646 5639 5631 5624 5617 5610 5603 5596 5589 5583 5576 5569 5562
5768 5767 5766 5765 5764 5762 5760 5758 5756 5754 5751 5748 5745 5741 5737 5733 5729 5725 5721 5716 5711 5706 5700 5694 5688 5681 5675 5668 5661 5654 5647 5640 5633 5626 5619 5612 5605 5599 5593 5586 5580 5573 5567 5561
5759 5758 5757 5756 5754 5753 5751 5749 5747 5744 5741 5738 5735 5731 5727 5724 5720 5716 5711 5706 5702 5696 5690 5684 5678 5672 5666 5659 5653 5646 5640 5633 5627 5620 5614 5607 5601 5595 5589 5583 5577 5571 5565 5559
5750 5749 5747 5746 5745 5743 5741 5739 5736 5733 5730 5727 5724 5720 5717 5713 5709 5705 5701 5696 5691 5686 5680 5674 5669 5663 5657 5651 5645 5639 5633 5627 5621 5615 5609 5603 5597 5592 5586 5580 5574 5569 5563 5558
5739 5738 5737 5735 5733 5731 5729 5727 5724 5721 5718 5715 5712 5708 5705 5701 5697 5694 5689 5685 5680 5675 5670 5664 5659 5653 5648 5642 5637 5632 5626 5621 5615 5610 5604 5599 5593 5588 5583 5578 5572 5567 5562 5557
5728 5727 5725 5723 5721 5719 5717 5714 5712 5709 5706 5702 5699 5696 5693 5689 5685 5681 5677 5673 5668 5663 5658 5653 5648 5643 5638 5633 5629 5624 5619 5614 5609 5605 5600 5595 5590 5585 5580 5575 5570 5565 5560 5556
5715 5714 5712 5710 5708 5705 5703 5701 5698 5696 5693 5689 5686 5683 5679 5676 5672 5668 5664 5660 5656 5650 5646 5642 5637 5633 5629 5624 5620 5616 5612 5608 5603 5599 5595 5591 5586 5581 5577 5572 5568 5563 5559 5555
5702 5700 5698 5696 5694 5691 5689 5686 5683 5681 5678 5675 5671 5668 5665 5662 5658 5654 5650 5646 5643 5638 5634 5630 5626 5622 5619 5615 5612 5608 5605 5601 5597 5594 5590 5586 5582 5578 5574 5570 5566 5562 5558 5554
5687 5685 5683 5681 5679 5676 5674 5671 5668 5666 5663 5660 5656 5653 5650 5647 5643 5640 5638 5634 5629 5626 5622 5618 5615 5612 5609 5605 5603 5600 5597 5594 5591 5588 5585 5582 5578 5575 5572 5568 5564 5560 5557 5553
5671 5669 5667 5665 5663 5660 5658 5655 5652 5649 5647 5644 5640 5637 5634 5632 5629 5625 5622 5619 5616 5613 5609 5606 5604 5601 5598 5596 5594 5592 5590 5587 5585 5582 5580 5577 5574 5572 5569 5566 5562 5559 5556 5553
5654 5652 5650 5648 5645 5643 5640 5638 5635 5633 5630 5627 5624 5621 5618 5615 5613 5611 5608 5605 5602 5599 5597 5594 5592 5590 5588 5587 5585 5584 5582 5581 5579 5577 5575 5573 5570 5568 5566 5563 5561 5558 5555 5552
5636 5634 5631 5629 5626 5624 5622 5619 5617 5614 5612 5610 5607 5604 5602 5599 5597 5595 5593 5591 5588 5586 5584 5583 5581 5580 5579 5578 5577 5576 5575 5574 5573 5571 5570 5568 5567 5565 5563 5561 5559 5557 5555 5552
5617 5614 5612 5609 5607 5604 5602 5599 5597 5595 5593 5591 5589 5587 5585 5583 5581 5579 5578 5576 5575 5574 5572 5572 5571 5570 5569 5569 5569 5568 5568 5567 5567 5566 5565 5564 5563 5562 5561 5559 5558 5556 5554 5552